Weather History for Sanford, ME

Change the Weather History Date:

Saturday, May 5, 2012

  Actual Average Record
Temperature  
Mean Temperature 53 °F -  
Max Temperature 62 °F 61 °F 78 °F (2000)
Min Temperature 42 °F 39 °F 24 °F (2013)
Degree Days  
Heating Degree Days 12    
Growing Degree Days 3 (Base 50)    
Moisture  
Dew Point 48 °F    
Average Humidity 87    
Maximum Humidity 100    
Minimum Humidity 68    
Precipitation  
Precipitation 0.00 in - - ()
Sea Level Pressure  
Sea Level Pressure 30.00 in    
Wind  
Wind Speed 3 mph (NE)    
Max Wind Speed 13 mph    
Max Gust Speed -    
Visibility 8 miles    
Events      
Averages and records for this station are not official NWS values.
T = Trace of Precipitation, MM = Missing Value Source: NWS Daily Summary

Daily Weather History Graph

Daily Weather History Graph

Search for Another Location

Airport:

Trip Planner

Search our weather history database for the weather conditions in past years. The results will help you decide how hot, cold, wet, or windy it might be!

Date:

Astronomy

May. 05, 2012 Rise Set
Actual Time 5:29 AM EDT 7:49 PM EDT
Civil Twilight 4:58 AM EDT 8:21 PM EDT
Nautical Twilight 4:18 AM EDT 9:01 PM EDT
Astronomical Twilight 3:34 AM EDT 9:45 PM EDT
Moon 7:39 PM EDT (5/5) 4:50 AM EDT (5/5)
Length of Visible Light 15h 23m
Length of Day
14h 20m
Full, 100% of the Moon is Illuminated
May 5
Full
May 5
Full
May 12
Last Quarter
May 20
New
May 28
First Quarter

Hourly Weather History & Observations

Time (EDT) Temp. Windchill Dew Point Humidity Pressure Visibility Wind Dir Wind Speed Gust Speed Precip Events Conditions
12:15 AM 46.4 °F 45.2 °F 46.4 °F 100% 29.97 in 0.8 mi ENE 3.5 mph - N/A   Overcast
12:35 AM 46.4 °F 44.3 °F 46.4 °F 100% 29.97 in 0.5 mi NNE 4.6 mph - N/A   Overcast
12:55 AM 46.4 °F 44.3 °F 46.4 °F 100% 29.97 in 0.8 mi NNE 4.6 mph - N/A   Overcast
1:15 AM 46.4 °F 45.2 °F 46.4 °F 100% 29.97 in 0.8 mi NE 3.5 mph - N/A   Overcast
1:35 AM 46.4 °F - 44.6 °F 93% 29.96 in 0.5 mi Calm Calm - N/A   Overcast
1:55 AM 46.4 °F - 46.4 °F 100% 29.96 in 0.8 mi Calm Calm - N/A   Overcast
2:15 AM 46.4 °F - 46.4 °F 100% 29.96 in 0.8 mi Calm Calm - N/A   Overcast
2:35 AM 46.4 °F - 44.6 °F 93% 29.95 in 0.8 mi Calm Calm - N/A   Overcast
2:55 AM 46.4 °F - 46.4 °F 100% 29.95 in 0.8 mi Calm Calm - N/A   Overcast
3:15 AM 46.4 °F - 44.6 °F 93% 29.95 in 1.0 mi Calm Calm - N/A   Overcast
3:35 AM 46.4 °F - 46.4 °F 100% 29.95 in 5.0 mi Calm Calm - N/A   Overcast
3:55 AM 46.4 °F - 46.4 °F 100% 29.95 in 2.5 mi Calm Calm - N/A   Overcast
4:15 AM 46.4 °F 45.2 °F 44.6 °F 93% 29.95 in 9.0 mi North 3.5 mph - N/A   Overcast
4:35 AM 46.4 °F - 46.4 °F 100% 29.95 in 10.0 mi Calm Calm - N/A   Overcast
4:55 AM 46.4 °F - 44.6 °F 93% 29.96 in 6.0 mi Calm Calm - N/A   Overcast
5:15 AM 46.4 °F - 46.4 °F 100% 29.95 in 7.0 mi Calm Calm - N/A   Overcast
5:35 AM 46.4 °F - 46.4 °F 100% 29.95 in 5.0 mi Calm Calm - N/A   Overcast
5:55 AM 46.4 °F - 44.6 °F 93% 29.95 in 6.0 mi Calm Calm - N/A   Overcast
6:15 AM 46.4 °F - 46.4 °F 100% 29.96 in 5.0 mi Calm Calm - N/A   Overcast
6:35 AM 46.4 °F - 44.6 °F 93% 29.96 in 7.0 mi Calm Calm - N/A   Overcast
6:55 AM 46.4 °F - 46.4 °F 100% 29.97 in 7.0 mi Calm Calm - N/A   Overcast
7:15 AM 48.2 °F - 46.4 °F 93% 29.97 in 10.0 mi Calm Calm - N/A   Overcast
7:35 AM 48.2 °F - 46.4 °F 93% 29.98 in 10.0 mi Calm Calm - N/A   Overcast
7:55 AM 48.2 °F - 46.4 °F 93% 29.98 in 10.0 mi Calm Calm - N/A   Overcast
8:15 AM 48.2 °F - 46.4 °F 93% 29.98 in 10.0 mi Calm Calm - N/A   Overcast
8:35 AM 50.0 °F - 46.4 °F 87% 29.98 in 10.0 mi Calm Calm - N/A   Overcast
8:55 AM 50.0 °F - 48.2 °F 94% 29.99 in 10.0 mi Calm Calm - N/A   Overcast
9:15 AM 51.8 °F - 48.2 °F 88% 30.00 in 10.0 mi Calm Calm - N/A   Overcast
9:35 AM 51.8 °F - 48.2 °F 88% 29.99 in 10.0 mi NNE 3.5 mph - N/A   Overcast
9:55 AM 53.6 °F - 50.0 °F 88% 30.00 in 10.0 mi NNE 3.5 mph - N/A   Overcast
10:15 AM 55.4 °F - 51.8 °F 88% 30.00 in 10.0 mi NNE 5.8 mph - N/A   Overcast
10:35 AM 57.2 °F - 51.8 °F 82% 30.01 in 10.0 mi North 8.1 mph - N/A   Overcast
10:55 AM 57.2 °F - 51.8 °F 82% 30.01 in 10.0 mi North 4.6 mph - N/A   Overcast
11:15 AM 59.0 °F - 51.8 °F 77% 30.02 in 10.0 mi North 9.2 mph - N/A   Overcast
11:35 AM 60.8 °F - 51.8 °F 72% 30.01 in 10.0 mi North 9.2 mph - N/A   Overcast
11:55 AM 60.8 °F - 51.8 °F 72% 30.01 in 10.0 mi NNE 6.9 mph - N/A   Overcast
12:15 PM 60.8 °F - 51.8 °F 72% 30.01 in 10.0 mi North 12.7 mph - N/A   Overcast
12:35 PM 62.6 °F - 51.8 °F 68% 30.00 in 10.0 mi NNE 9.2 mph - N/A   Overcast
12:55 PM 62.6 °F - 51.8 °F 68% 30.00 in 10.0 mi North 4.6 mph - N/A   Overcast
1:15 PM 62.6 °F - 51.8 °F 68% 30.00 in 10.0 mi NE 5.8 mph - N/A   Overcast
1:35 PM 62.6 °F - 51.8 °F 68% 30.00 in 10.0 mi South 4.6 mph - N/A   Overcast
1:55 PM 60.8 °F - 51.8 °F 72% 30.01 in 10.0 mi South 8.1 mph - N/A   Mostly Cloudy
2:15 PM 60.8 °F - 51.8 °F 72% 30.00 in 10.0 mi SSE 5.8 mph - N/A   Mostly Cloudy
2:55 PM 62.6 °F - 51.8 °F 68% 30.00 in 10.0 mi ESE 8.1 mph - N/A   Scattered Clouds
3:16 PM 60.8 °F - 51.8 °F 72% 30.00 in 10.0 mi ESE 6.9 mph - N/A   Mostly Cloudy
3:35 PM 60.8 °F - 51.8 °F 72% 30.00 in 10.0 mi SE 6.9 mph - N/A   Partly Cloudy
3:55 PM 60.8 °F - 50.0 °F 68% 30.00 in 10.0 mi SE 5.8 mph - N/A   Clear
4:15 PM 60.8 °F - 50.0 °F 68% 30.00 in 10.0 mi SE 8.1 mph - N/A   Clear
4:35 PM 59.0 °F - 50.0 °F 72% 30.01 in 10.0 mi SSE 6.9 mph - N/A   Clear
4:55 PM 59.0 °F - 50.0 °F 72% 30.01 in 10.0 mi ESE 6.9 mph - N/A   Clear
8:55 PM 48.2 °F - 46.4 °F 93% 30.08 in 10.0 mi Calm Calm - N/A   Clear
9:15 PM 46.4 °F - 44.6 °F 93% 30.08 in 10.0 mi Calm Calm - N/A   Partly Cloudy
9:35 PM 46.4 °F - 44.6 °F 93% 30.09 in 9.0 mi Calm Calm - N/A   Mostly Cloudy
9:55 PM 46.4 °F - 44.6 °F 93% 30.09 in 10.0 mi Calm Calm - N/A   Overcast
10:15 PM 46.4 °F - 44.6 °F 93% 30.10 in 10.0 mi Calm Calm - N/A   Mostly Cloudy
10:35 PM - - - N/A% 30.09 in 10.0 mi Calm Calm - N/A   Overcast
10:55 PM 46.4 °F - 44.6 °F 93% 30.10 in 9.0 mi Calm Calm - N/A   Overcast
11:15 PM 44.6 °F 42.2 °F 42.8 °F 93% 30.10 in 8.0 mi WSW 4.6 mph - N/A   Mostly Cloudy
11:55 PM 42.8 °F - 41.0 °F 93% 30.11 in 3.0 mi Calm Calm - N/A   Partly Cloudy